TimeAKST,TemperatureF,Dew PointF,Humidity,Sea Level PressureIn,VisibilityMPH,Wind Direction,Wind SpeedMPH,Gust SpeedMPH,PrecipitationIn,Events,Conditions,WindDirDegrees,DateUTC
12:16 AM,33.8,32.0,93,29.72,10.0,West,3.5,-,N/A,,Overcast,260,2013-01-06 09:16:00
12:36 AM,33.8,32.0,93,29.72,10.0,Calm,Calm,-,N/A,,Overcast,0,2013-01-06 09:36:00
12:56 AM,35.6,32.0,87,29.72,10.0,Calm,Calm,-,N/A,,Overcast,0,2013-01-06 09:56:00
1:16 AM,33.8,30.2,87,29.73,10.0,WSW,3.5,-,N/A,,Overcast,240,2013-01-06 10:16:00
1:36 AM,33.8,32.0,93,29.73,10.0,South,4.6,-,N/A,,Overcast,180,2013-01-06 10:36:00
1:56 AM,33.8,32.0,93,29.73,10.0,East,3.5,-,N/A,,Overcast,100,2013-01-06 10:56:00
2:16 AM,33.8,30.2,87,29.74,10.0,Calm,Calm,-,N/A,,Overcast,0,2013-01-06 11:16:00
2:36 AM,33.8,32.0,93,29.75,10.0,SSW,3.5,-,N/A,,Overcast,200,2013-01-06 11:36:00
3:16 AM,33.8,32.0,93,29.75,10.0,Calm,Calm,-,N/A,,Overcast,0,2013-01-06 12:16:00
3:36 AM,33.8,32.0,93,29.75,10.0,WSW,3.5,-,N/A,,Overcast,240,2013-01-06 12:36:00
3:56 AM,33.8,32.0,93,29.75,10.0,SW,3.5,-,N/A,,Overcast,230,2013-01-06 12:56:00
4:16 AM,33.8,32.0,93,29.74,10.0,SW,3.5,-,N/A,,Overcast,220,2013-01-06 13:16:00
4:36 AM,33.8,32.0,93,29.74,10.0,Calm,Calm,-,N/A,,Overcast,0,2013-01-06 13:36:00
4:56 AM,33.8,32.0,93,29.75,10.0,Calm,Calm,-,N/A,,Overcast,0,2013-01-06 13:56:00
5:16 AM,33.8,30.2,87,29.74,10.0,Calm,Calm,-,N/A,,Overcast,0,2013-01-06 14:16:00
5:36 AM,33.8,30.2,87,29.74,9.0,West,3.5,-,N/A,,Overcast,260,2013-01-06 14:36:00
5:56 AM,33.8,32.0,93,29.74,10.0,Calm,Calm,-,N/A,,Overcast,0,2013-01-06 14:56:00
6:16 AM,33.8,32.0,93,29.75,10.0,Calm,Calm,-,N/A,,Mostly Cloudy,0,2013-01-06 15:16:00
6:36 AM,35.6,32.0,87,29.75,10.0,Calm,Calm,-,N/A,,Mostly Cloudy,0,2013-01-06 15:36:00
6:56 AM,33.8,32.0,93,29.75,10.0,Calm,Calm,-,N/A,,Overcast,0,2013-01-06 15:56:00
7:16 AM,33.8,30.2,87,29.74,10.0,Calm,Calm,-,N/A,,Overcast,0,2013-01-06 16:16:00
7:36 AM,33.8,32.0,93,29.74,10.0,Calm,Calm,-,N/A,,Overcast,0,2013-01-06 16:36:00
7:56 AM,33.8,30.2,87,29.75,10.0,WSW,3.5,-,N/A,,Overcast,250,2013-01-06 16:56:00
8:36 AM,33.8,30.2,87,29.74,10.0,Calm,Calm,-,N/A,,Overcast,0,2013-01-06 17:36:00
8:56 AM,33.8,30.2,87,29.75,10.0,West,3.5,-,N/A,,Overcast,270,2013-01-06 17:56:00
9:16 AM,33.8,32.0,93,29.76,10.0,West,4.6,-,N/A,,Overcast,260,2013-01-06 18:16:00
9:36 AM,33.8,32.0,93,29.76,10.0,West,4.6,-,N/A,,Overcast,260,2013-01-06 18:36:00
9:56 AM,35.6,33.8,93,29.77,10.0,West,4.6,-,N/A,,Mostly Cloudy,270,2013-01-06 18:56:00
10:16 AM,33.8,32.0,93,29.77,10.0,Calm,Calm,-,N/A,,Mostly Cloudy,0,2013-01-06 19:16:00
10:36 AM,33.8,33.8,100,29.77,10.0,Calm,Calm,-,N/A,,Mostly Cloudy,0,2013-01-06 19:36:00
10:56 AM,35.6,32.0,87,29.77,10.0,SSW,3.5,-,N/A,,Overcast,210,2013-01-06 19:56:00
11:16 AM,35.6,33.8,93,29.77,10.0,West,3.5,-,N/A,,Overcast,260,2013-01-06 20:16:00
11:36 AM,35.6,33.8,93,29.76,10.0,Calm,Calm,-,N/A,,Overcast,0,2013-01-06 20:36:00
11:56 AM,37.4,33.8,87,29.76,10.0,Calm,Calm,-,N/A,,Overcast,0,2013-01-06 20:56:00
12:16 PM,35.6,33.8,93,29.76,10.0,Calm,Calm,-,N/A,,Overcast,0,2013-01-06 21:16:00
12:36 PM,37.4,33.8,87,29.75,10.0,Calm,Calm,-,N/A,,Overcast,0,2013-01-06 21:36:00
12:56 PM,39.2,32.0,75,29.75,10.0,Calm,Calm,-,N/A,,Mostly Cloudy,0,2013-01-06 21:56:00
1:16 PM,37.4,32.0,81,29.75,10.0,SW,4.6,-,N/A,,Mostly Cloudy,230,2013-01-06 22:16:00
1:36 PM,37.4,32.0,81,29.74,10.0,Calm,Calm,-,N/A,,Mostly Cloudy,0,2013-01-06 22:36:00
1:56 PM,37.4,32.0,81,29.74,10.0,Calm,Calm,-,N/A,,Overcast,0,2013-01-06 22:56:00
2:16 PM,37.4,30.2,75,29.74,10.0,SW,4.6,-,N/A,,Overcast,220,2013-01-06 23:16:00
2:36 PM,39.2,30.2,70,29.74,10.0,ESE,4.6,-,N/A,,Overcast,110,2013-01-06 23:36:00
2:56 PM,37.4,30.2,75,29.73,10.0,ESE,6.9,-,N/A,,Overcast,120,2013-01-06 23:56:00
3:16 PM,39.2,28.4,65,29.73,10.0,SE,8.1,-,N/A,,Overcast,140,2013-01-07 00:16:00
3:36 PM,39.2,28.4,65,29.71,10.0,East,4.6,-,N/A,,Overcast,100,2013-01-07 00:36:00
3:56 PM,39.2,28.4,65,29.70,10.0,East,5.8,-,N/A,,Mostly Cloudy,90,2013-01-07 00:56:00
4:16 PM,39.2,28.4,65,29.69,10.0,Calm,Calm,-,N/A,,Mostly Cloudy,0,2013-01-07 01:16:00
4:36 PM,39.2,28.4,65,29.68,10.0,Calm,Calm,-,N/A,,Mostly Cloudy,0,2013-01-07 01:36:00
4:56 PM,39.2,28.4,65,29.67,10.0,SW,3.5,-,N/A,,Mostly Cloudy,230,2013-01-07 01:56:00
5:16 PM,39.2,28.4,65,29.67,10.0,Calm,Calm,-,N/A,,Mostly Cloudy,0,2013-01-07 02:16:00
5:36 PM,37.4,30.2,75,29.66,10.0,SSW,3.5,-,N/A,,Mostly Cloudy,210,2013-01-07 02:36:00
6:16 PM,39.2,28.4,65,29.64,10.0,East,5.8,-,N/A,,Scattered Clouds,100,2013-01-07 03:16:00
6:36 PM,39.2,28.4,65,29.63,10.0,ESE,5.8,-,N/A,,Scattered Clouds,120,2013-01-07 03:36:00
6:56 PM,41.0,28.4,61,29.62,10.0,ESE,8.1,-,N/A,,Mostly Cloudy,110,2013-01-07 03:56:00
7:16 PM,41.0,28.4,61,29.61,10.0,East,3.5,-,N/A,,Mostly Cloudy,90,2013-01-07 04:16:00
7:36 PM,41.0,28.4,61,29.60,10.0,East,5.8,-,N/A,,Mostly Cloudy,100,2013-01-07 04:36:00
7:56 PM,41.0,28.4,61,29.59,10.0,ESE,6.9,-,N/A,,Overcast,110,2013-01-07 04:56:00
8:36 PM,39.2,28.4,65,29.56,10.0,ESE,9.2,-,N/A,,Overcast,120,2013-01-07 05:36:00
8:56 PM,39.2,30.2,70,29.54,10.0,Calm,Calm,-,N/A,,Overcast,0,2013-01-07 05:56:00
9:16 PM,39.2,30.2,70,29.53,10.0,North,5.8,-,N/A,,Overcast,360,2013-01-07 06:16:00
9:36 PM,39.2,30.2,70,29.52,10.0,Calm,Calm,-,N/A,,Overcast,0,2013-01-07 06:36:00
9:56 PM,39.2,30.2,70,29.51,10.0,ESE,3.5,-,N/A,,Overcast,120,2013-01-07 06:56:00
10:16 PM,37.4,32.0,81,29.50,10.0,Calm,Calm,-,N/A,,Overcast,0,2013-01-07 07:16:00
10:36 PM,37.4,30.2,75,29.49,10.0,South,4.6,-,N/A,,Overcast,190,2013-01-07 07:36:00
10:56 PM,37.4,32.0,81,29.48,10.0,East,6.9,-,0.01,,Overcast,100,2013-01-07 07:56:00
11:16 PM,37.4,32.0,81,29.48,4.0,Calm,Calm,-,0.01,,Overcast,0,2013-01-07 08:16:00
11:36 PM,35.6,32.0,87,29.48,5.0,NNW,3.5,-,0.02,,Overcast,330,2013-01-07 08:36:00
11:56 PM,35.6,33.8,93,29.47,8.0,Calm,Calm,-,0.03,,Overcast,0,2013-01-07 08:56:00